User: anonymous
Location: NJAA Observatory
(40.6819°N, 74.8979°W)
Time: 17:36:15
(UTC-04:00)
Language:

Cosmos 220 Rocket - Orbit

View from above orbital plane
View from above orbital plane
View from above satellite
View from above satellite

Ground track
Ground track

The orbit data is extracted from the following two-line orbital elements,

1 03230U 68040B   14294.40131583  .00003248  00000-0  35332-3 0  3890
2 03230 074.0401 022.1717 0032267 233.8346 125.9849 14.88137343491122
Epoch (UTC): 21 October 2014 09:37:53
Eccentricity: 0.0032267
inclination: 74.0401°
perigee height: 581 km
apogee height: 626 km
right ascension of ascending node: 22.1717°
argument of perigee: 233.8346°
revolutions per day: 14.88137343
mean anomaly at epoch: 125.9849°
orbit number at epoch: 49112

The dashed part of the orbit path shows where the satellite is in the earth's shadow,  

DLR